Regional Weather Roundup
Issued by NWS

Home | Current Version | Previous Version | Text Only | Print | Product List | Glossary On
Versions: 1 2 3 4 5 6 7 8 9 10 11 12 13 14 15 16 17 18 19 20 21 22 23 24 25 26 27 28 29 30 31 32 33 34 35 36 37 38 39 40 41 42 43 44 45 46 47 48 49 50
000
ASUS43 KMKX 161420
RWRWI

WISCONSIN REGIONAL WEATHER ROUNDUP
NATIONAL WEATHER SERVICE MILWAUKEE/SULLIVAN WI
800 AM CST MON JAN 16 2017

NOTE: "FAIR" INDICATES FEW OR NO CLOUDS BELOW 12,000 FEET WITH NO
SIGNIFICANT WEATHER AND/OR OBSTRUCTIONS TO VISIBILITY.

WIZ001-002-006>008-014>016-023>028-161500-
NORTHWEST WISCONSIN

CITY           SKY/WX    TMP DP  RH WIND       PRES   REMARKS
SUPERIOR ARPT  CLOUDY    12  10  92 W5        30.17R FOG     WCI   4
ASHLAND        CLOUDY    18  13  80 S8        30.18R WCI   8
HAYWARD        CLOUDY    -1  -6  79 CALM      30.17F
SIREN          CLOUDY     0  -4  83 CALM      30.18F FOG
CUMBERLAND     CLOUDY     3   0  85 CALM      30.17S FOG
RICE LAKE      CLOUDY    -2  -6  83 CALM      30.20F
CHETEK         CLOUDY     0  -4  85 CALM      30.20S
LADYSMITH      CLOUDY     1  -2  85 CALM      30.20F
EAU CLAIRE     CLOUDY     5   3  91 NE3       30.20S FOG
MENOMONIE      CLOUDY     6   2  86 CALM      30.20S FOG
NEW RICHMOND   CLOUDY     9   5  86 CALM      30.18F FOG
OSCEOLA        SNOW       6   3  87 SE3       30.21S VSB 1/2
$$

WIZ003>005-009-010-017-018-161500-
NORTH CENTRAL WISCONSIN

CITY           SKY/WX    TMP DP  RH WIND       PRES   REMARKS
MANITOWISH WTR CLOUDY    -1  -4  89 CALM      30.16R
ARBOR VITAE    LGT SNOW   2  -1  84 CALM      30.17S VSB 1
WOODRUFF       LGT SNOW   2  -1  84 CALM      30.17S VSB 1
RHINELANDER    CLOUDY    10   9  95 CALM      30.18R FOG
EAGLE RIVER    PTCLDY     2  -3  80 CALM      30.17R
LAND O LAKES   CLOUDY    -3  -7  84 CALM      30.17R
PHILLIPS       CLOUDY   N/A N/A N/A CALM      30.18S
TOMAHAWK       CLOUDY    -4  -8  83 CALM      30.20R
MEDFORD        CLOUDY     3   0  84 CALM      30.17F
MERRILL        CLOUDY    -4  -9  79 CALM        N/A
$$

WIZ029-030-035-036-043>047-161500-
CENTRAL WISCONSIN

CITY           SKY/WX    TMP DP  RH WIND       PRES   REMARKS
WAUSAU         CLOUDY     3  -1  83 CALM      30.20F FOG
MOSINEE        MOCLDY    10   9  92 CALM      30.21S
MARSHFIELD     CLOUDY     9   5  84 NE3       30.18F FOG
STEVENS POINT  CLOUDY     2  -1  88 CALM      30.22S FOG
WAUPACA        CLOUDY    15  11  85 CALM      30.24S
WAUTOMA        CLOUDY    18  15  88 CALM      30.25R
WISC RAPIDS    CLOUDY    10   8  92 NE5       30.23R FOG     WCI   2
CAMP DOUGLAS   CLOUDY    22  17  82 CALM      30.21R
$$

WIZ011>013-019>022-031-037>040-048>050-161500-
NORTHEAST WISCONSIN

CITY           SKY/WX    TMP DP  RH WIND       PRES   REMARKS
ANTIGO         CLOUDY     2   0  88 CALM      30.19S
SHAWANO        MOCLDY    12   8  85 CALM      30.24F
OCONTO         CLOUDY    10   7  88 CALM      30.25S
STURGEON BAY   CLOUDY    20  14  77 SW3       30.25S
GREEN BAY      CLOUDY    20  15  81 S5        30.25S WCI  13
MANITOWOC      CLOUDY    21  17  84 W3        30.27R
APPLETON       MOCLDY    19  14  79 S3        30.22S
CLINTONVILLE   PTCLDY     7   3  85 CALM      30.24F
OSHKOSH        CLOUDY    22  18  85 CALM      30.24S FOG
$$

WIZ032>034-041-042-053>061-161500-
SOUTHWEST WISCONSIN

CITY           SKY/WX    TMP DP  RH WIND       PRES   REMARKS
LA CROSSE      CLOUDY   N/A N/A N/A SE5       30.20F
SPARTA         CLOUDY    19  17  93 CALM      30.22S
VIROQUA        CLOUDY    26  24  91 SE8       30.17S WCI  18
BOSCOBEL       CLOUDY    29  26  89 NE5       30.20F FOG     WCI  24
PRAIRIE DU CHI MIX PCPN  30  26  87 CALM      30.19F
PLATTEVILLE    CLOUDY    31  31 100 E9        30.18F WCI  23
$$

WIZ056-057-062-063-064-067-068-161500-
SOUTH CENTRAL WISCONSIN

CITY           SKY/WX    TMP DP  RH WIND       PRES   REMARKS
REEDSBURG      MIX PCPN  26  24  94 CALM      30.21F
BARABOO/DELLS  MIX PCPN  26  22  85 CALM      30.21F
LONE ROCK      FRZ RAIN  30  25  81 E6        30.21F WCI  24
MINERAL POINT  LGT RAIN  32  32 100 SE7       30.17F WCI  26
MADISON        FRZ RAIN  29  26  89 S5        30.22S FOG     WCI  24
MIDDLETON      CLOUDY    31  29  90 SE5       30.22S WCI  27
WATERTOWN      MIX PCPN  29  28  95 CALM      30.23F
MONROE         MIX PCPN  30  30 100 E3        30.19F
JANESVILLE     DRIZZLE   32  30  93 SE8       30.22F WCI  25
$$

WIZ051-052-058>065-066-070>072-161500-
SOUTHEAST WISCONSIN

CITY           SKY/WX    TMP DP  RH WIND       PRES   REMARKS
MILWAUKEE      FRZ RAIN  31  26  82 CALM      30.26S FOG
WAUKESHA       FRZ RAIN  27  23  86 CALM      30.26S
MILWAUKEE/TIMM FRZ RAIN  30  23  74 CALM      30.27R
RACINE         FRZ RAIN  31  27  85 S3        30.27F FOG
KENOSHA        FRZ RAIN  31  27  85 SE7       30.26S FOG     WCI  24
FOND DU LAC    CLOUDY    25  19  78 CALM      30.25R
SHEBOYGAN      CLOUDY    23  18  81 S5        30.26R WCI  17
WEST BEND      CLOUDY    25  23  93 CALM      30.25S
JUNEAU         MIX PCPN  25  20  82 E3        30.25S
$$

LSZ147-162-161500-
LAKE SUPERIOR

STATION/POSITION TIME  TEMP    WIND        PRES    WAVE
                       AIR SEA DIR/SP/G            HT/PER
                 (UTC) (F)     (DEG/KT/KT) (MB)    (FT/S)
DEVILS ISLAND    1400   27     220/ 14/ 18 1021.6R
PORT WING        1330   18     160/  8/ 10 1021.3R
SAXON HARBOR     1230   21     190/  7/ 10 1021.3S
$$

LMZ867-665-643>646-161500-
LAKE MICHIGAN

STATION/POSITION TIME  TEMP    WIND        PRES    WAVE
                       AIR SEA DIR/SP/G            HT/PER
                 (UTC) (F)     (DEG/KT/KT) (MB)    (FT/S)
NORTHPORT PIER   1406   21        CALM     1024.4
SISTER BAY       1250   22        CALM       N/A
KEWAUNEE LAKESHO 1354   22      CALM  /  2 1024.0S
SHEBOYGAN LAKESH 1400   28     210/  1/  2 1025.8R
PORT WASHINGTON  1340   28     260/  2/  3 1026.1R
MILWAUKEE LAKESH 1400   31     190/  3/  3   N/A
KENOSHA   LAKESH 1400   30     180/  5/  9 1025.1
$$

TC  - TEMPERATURE IN CELSIUS
VSB - VISIBILITY IN STATUTE MILES
WCI - WIND CHILL INDEX
HX  - HEAT INDEX




USA.gov is the U.S. government's official web portal to all federal, state and local government web resources and services.